This demonstration page uses our WeatherBlox Daily Observations layout. Learn more.

Left ArrowRight Arrow

Hourly Observations for June 10, 2017

Temp ( °F °C ) Dew Point ( °F °C ) Humidity (%) Winds ( mph kmh ) Pressure ( in mb ) Visibility ( mi km ) Precip ( " mm )
12:59 am 00:59 Clear 67 19.4 57 13.9 71 71 S 6 9 30.02 1017 10 16 0.00 0.00
1:59 am 01:59 Clear 68 20 61 16.1 78 78 SSW 7 11 30.02 1017 10 16 0.00 0.00
2:59 am 02:59 Clear 67 19.4 62 16.7 84 84 SSW 7 11 30.03 1017 10 16 0.00 0.00
3:59 am 03:59 Clear 66 18.9 61 16.1 84 84 SW 5 7 30.02 1017 10 16 0.00 0.00
4:59 am 04:59 Clear 65 18.3 61 16.1 87 87 SSW 5 7 30.02 1017 9 14 0.00 0.00
5:59 am 05:59 Sunny 65 18.3 62 16.7 90 90 SSW 5 7 30.04 1017 7 11 0.00 0.00
6:59 am 06:59 Mostly Sunny 68 20 63 17.2 84 84 SSW 5 7 30.06 1018 7 11 0.00 0.00
7:59 am 07:59 Mostly Sunny 71 21.7 64 17.8 79 79 SW 6 9 30.07 1018 9 14 0.00 0.00
8:59 am 08:59 Partly Cloudy 75 23.9 65 18.3 71 71 VRB 5 7 30.09 1019 9 14 0.00 0.00
9:59 am 09:59 Partly Cloudy 79 26.1 65 18.3 62 62 WSW 3 6 30.10 1019 10 16 0.00 0.00
10:59 am 10:59 Partly Cloudy 83 28.3 64 17.8 53 53 WSW 7 11 30.10 1019 10 16 0.00 0.00
11:59 am 11:59 Partly Cloudy 83 28.3 61 16.1 48 48 SW 6 9 30.10 1019 10 16 0.00 0.00
12:59 pm 12:59 Mostly Sunny 86 30 59 15 40 40 SE 7 11 30.10 1019 10 16 0.00 0.00
1:59 pm 13:59 Partly Cloudy 87 30.6 58 14.4 37 37 VRB 7 11 30.09 1019 10 16 0.00 0.00
2:59 pm 14:59 Partly Cloudy 88 31.1 60 15.6 39 39 VRB 7 11 30.08 1019 10 16 0.00 0.00
3:59 pm 15:59 Partly Cloudy 87 30.6 61 16.1 42 42 SSW 5 7 30.07 1018 10 16 0.00 0.00
4:59 pm 16:59 Mostly Cloudy 85 29.4 60 15.6 43 43 SSW 6 9 30.06 1018 10 16 0.00 0.00
5:59 pm 17:59 Partly Cloudy 87 30.6 59 15 39 39 SSW 7 11 30.05 1018 10 16 0.00 0.00
6:59 pm 18:59 Mostly Sunny 85 29.4 59 15 42 42 SSW 7 11 30.06 1018 10 16 0.00 0.00
7:59 pm 19:59 Mostly Sunny 82 27.8 60 15.6 47 47 SSW 7 11 30.08 1019 10 16 0.00 0.00
8:59 pm 20:59 Mostly Clear 81 27.2 60 15.6 49 49 SSW 5 7 30.09 1019 10 16 0.00 0.00
9:59 pm 21:59 Mostly Clear 79 26.1 63 17.2 58 58 S 6 9 30.12 1020 10 16 0.00 0.00
10:59 pm 22:59 Partly Cloudy 78 25.6 66 18.9 67 67 VRB 7 11 30.14 1021 9 14 0.00 0.00
11:59 pm 23:59 Partly Cloudy 77 25 66 18.9 69 69 SSW 9 15 30.14 1021 10 16 0.00 0.00

Powered by AerisWeather